GW0819 Weather Reports


Display with metric or nautical units.
time (UTC)temp
F
wind
direction
speed
MPH
gust
MPH
rain 1hr
in
rain 24hr
in
rain mn
in
humidity
%
barometer
mb
20260905211657 93 133 21.0 23.0 0.00 0.00 0.00 29 1012.0
20260905211152 93 136 9.0 10.0 0.00 0.00 0.00 28 1012.1
20260905210649 93 150 11.0 15.0 0.00 0.00 0.00 28 1012.4
20260905210149 95 182 13.0 16.0 0.00 0.00 0.00 26 1012.5
20260905205648 97 141 8.0 12.0 0.00 0.00 0.00 26 1012.6
20260905205147 95 82 2.0 4.0 0.00 0.00 0.00 27 1012.2
20260905204646 95 94 7.0 8.0 0.00 0.00 0.00 27 1012.6
20260905204142 95 117 9.0 11.0 0.00 0.00 0.00 27 1012.6
20260905203637 95 151 10.0 15.0 0.00 0.00 0.00 26 1012.5
20260905203132 95 146 10.0 18.0 0.00 0.00 0.00 27 1012.6
20260905202628 96 130 11.0 17.0 0.00 0.00 0.00 26 1012.6
20260905202123 95 148 11.0 17.0 0.00 0.00 0.00 27 1012.8
20260905201618 97 168 8.0 14.0 0.00 0.00 0.00 25 1012.9
20260905201118 95 173 4.0 5.0 0.00 0.00 0.00 26 1012.9
20260905200614 95 131 10.0 12.0 0.00 0.00 0.00 27 1013.2
20260905200109 93 247 4.0 6.0 0.00 0.00 0.00 28 1012.9
20260905195601 93 209 8.0 11.0 0.00 0.00 0.00 28 1013.4
20260905195057 95 162 11.0 12.0 0.00 0.00 0.00 27 1013.4
20260905194557 95 191 16.0 17.0 0.00 0.00 0.00 26 1013.3
20260905194056 95 174 4.0 12.0 0.00 0.00 0.00 26 1013.3
20260905193551 93 182 4.0 10.0 0.00 0.00 0.00 28 1013.4
20260905193046 93 193 8.0 11.0 0.00 0.00 0.00 28 1013.3
20260905192542 95 228 10.0 15.0 0.00 0.00 0.00 27 1013.7
20260905192038 95 196 9.0 10.0 0.00 0.00 0.00 27 1013.8
20260905191536 94 210 5.0 12.0 0.00 0.00 0.00 28 1013.8
20260905191036 93 231 3.0 10.0 0.00 0.00 0.00 27 1014.0
20260905190533 94 210 9.0 13.0 0.00 0.00 0.00 27 1013.9
20260905190028 93 232 14.0 14.0 0.00 0.00 0.00 26 1014.0
20260905185527 94 120 9.0 12.0 0.00 0.00 0.00 28 1013.9
20260905185026 92 148 8.0 13.0 0.00 0.00 0.00 29 1014.0
20260905184521 92 247 9.0 12.0 0.00 0.00 0.00 30 1014.1
20260905184019 93 141 12.0 13.0 0.00 0.00 0.00 27 1014.1
20260905183514 95 224 6.0 13.0 0.00 0.00 0.00 28 1014.5
20260905183009 93 78 2.0 6.0 0.00 0.00 0.00 30 1014.1
20260905182509 93 153 5.0 10.0 0.00 0.00 0.00 30 1014.3
20260905182003 92 185 9.0 13.0 0.00 0.00 0.00 30 1014.3
20260905181459 93 244 10.0 11.0 0.00 0.00 0.00 30 1014.2
20260905180957 94 207 10.0 33.0 0.00 0.00 0.00 30 1014.3
20260905180452 92 269 7.0 8.0 0.00 0.00 0.00 31 1014.5
20260905175947 92 205 5.0 12.0 0.00 0.00 0.00 32 1014.5
20260905175447 92 324 3.0 5.0 0.00 0.00 0.00 31 1014.7
20260905174943 92 230 6.0 8.0 0.00 0.00 0.00 31 1014.5
20260905174437 91 301 2.0 10.0 0.00 0.00 0.00 32 1014.9
20260905173933 91 259 6.0 15.0 0.00 0.00 0.00 32 1014.7
20260905173430 91 278 7.0 9.0 0.00 0.00 0.00 33 1015.3
20260905172925 91 240 5.0 9.0 0.00 0.00 0.00 33 1014.9
20260905172422 90 262 9.0 11.0 0.00 0.00 0.00 32 1014.9
20260905171919 90 205 5.0 12.0 0.00 0.00 0.00 33 1015.0
20260905171415 90 239 7.0 11.0 0.00 0.00 0.00 33 1014.9
20260905170911 90 204 8.0 11.0 0.00 0.00 0.00 34 1014.9
20260905170407 89 247 7.0 12.0 0.00 0.00 0.00 35 1014.9
20260905165906 89 237 8.0 12.0 0.00 0.00 0.00 35 1014.7
20260905165401 89 240 8.0 11.0 0.00 0.00 0.00 35 1014.9
20260905164856 88 236 9.0 12.0 0.00 0.00 0.00 36 1014.9
20260905164351 88 254 10.0 14.0 0.00 0.00 0.00 36 1014.9
20260905163846 88 230 7.0 14.0 0.00 0.00 0.00 36 1014.7
20260905163343 88 252 10.0 15.0 0.00 0.00 0.00 36 1015.4
20260905162839 89 233 13.0 13.0 0.00 0.00 0.00 35 1014.9
20260905162338 88 238 5.0 7.0 0.00 0.00 0.00 37 1014.8
20260905161833 87 229 9.0 10.0 0.00 0.00 0.00 38 1014.9
20260905161332 86 245 5.0 13.0 0.00 0.00 0.00 39 1014.9
20260905160830 85 236 5.0 13.0 0.00 0.00 0.00 40 1015.0
20260905160325 86 226 10.0 13.0 0.00 0.00 0.00 39 1015.1
20260905155819 86 229 10.0 11.0 0.00 0.00 0.00 40 1015.0
20260905155313 86 242 7.0 11.0 0.00 0.00 0.00 40 1014.8
20260905154807 84 269 5.0 10.0 0.00 0.00 0.00 43 1014.7
20260905154302 84 219 6.0 10.0 0.00 0.00 0.00 43 1014.6
20260905153752 83 256 8.0 11.0 0.00 0.00 0.00 45 1014.9
20260905153248 83 242 5.0 12.0 0.00 0.00 0.00 46 1014.8
20260905152743 83 256 5.0 11.0 0.00 0.00 0.00 47 1014.8
20260905152237 82 221 9.0 13.0 0.00 0.00 0.00 47 1014.9
20260905151736 82 239 7.0 12.0 0.00 0.00 0.00 49 1014.8
20260905151233 81 234 9.0 11.0 0.00 0.00 0.00 50 1014.8
20260905150732 80 231 7.0 12.0 0.00 0.00 0.00 53 1014.5
20260905150232 80 238 7.0 14.0 0.00 0.00 0.00 52 1014.8
20260905145729 79 223 8.0 11.0 0.00 0.00 0.00 53 1014.7
20260905145224 78 222 10.0 12.0 0.00 0.00 0.00 56 1014.9
20260905144723 78 207 8.0 12.0 0.00 0.00 0.00 57 1014.8
20260905144218 78 224 11.0 12.0 0.00 0.00 0.00 57 1014.9
20260905143717 77 212 8.0 11.0 0.00 0.00 0.00 59 1015.0
20260905143217 77 220 10.0 13.0 0.00 0.00 0.00 59 1015.1
20260905142716 77 218 9.0 12.0 0.00 0.00 0.00 60 1015.1
20260905142211 77 230 12.0 15.0 0.00 0.00 0.00 60 1014.7
20260905141706 76 221 10.0 14.0 0.00 0.00 0.00 62 1014.7
20260905141202 76 207 12.0 14.0 0.00 0.00 0.00 61 1014.7
20260905140657 75 212 10.0 14.0 0.00 0.00 0.00 62 1014.9
20260905140151 76 191 10.0 13.0 0.00 0.00 0.00 61 1015.0
20260905135646 75 205 13.0 13.0 0.00 0.00 0.00 60 1015.0
20260905135141 75 205 10.0 14.0 0.00 0.00 0.00 61 1014.8
20260905134636 74 215 10.0 13.0 0.00 0.00 0.00 62 1014.6
20260905134135 74 212 10.0 11.0 0.00 0.00 0.00 63 1014.6
20260905133631 73 217 10.0 13.0 0.00 0.00 0.00 64 1014.7
20260905133130 73 203 8.0 10.0 0.00 0.00 0.00 65 1014.8
20260905132624 73 208 7.0 9.0 0.00 0.00 0.00 67 1014.7
20260905132119 72 197 8.0 9.0 0.00 0.00 0.00 69 1014.6
20260905131614 72 201 6.0 9.0 0.00 0.00 0.00 70 1014.6
20260905131110 71 208 6.0 9.0 0.00 0.00 0.00 71 1014.6
20260905130609 71 206 8.0 9.0 0.00 0.00 0.00 72 1014.2
20260905130104 71 196 9.0 10.0 0.00 0.00 0.00 73 1014.2
20260905125603 70 200 7.0 9.0 0.00 0.00 0.00 73 1014.1
20260905125059 70 190 8.0 9.0 0.00 0.00 0.00 74 1013.9
20260905124555 70 193 7.0 7.0 0.00 0.00 0.00 74 1013.9
20260905124051 70 198 6.0 9.0 0.00 0.00 0.00 74 1014.0
20260905123546 70 195 7.0 8.0 0.00 0.00 0.00 74 1014.2
20260905123043 70 199 7.0 9.0 0.00 0.00 0.00 73 1014.1
20260905122542 70 196 8.0 10.0 0.00 0.00 0.00 73 1014.2
20260905122037 70 181 7.0 8.0 0.00 0.00 0.00 73 1014.0
20260905121532 70 192 6.0 7.0 0.00 0.00 0.00 73 1013.8
20260905121027 70 188 7.0 8.0 0.00 0.00 0.00 72 1013.9
20260905120526 71 197 7.0 9.0 0.00 0.00 0.00 72 1013.9
20260905120022 71 195 6.0 9.0 0.00 0.00 0.00 72 1013.7
20260905115520 71 181 6.0 9.0 0.00 0.00 0.00 71 1013.8
20260905115016 71 176 5.0 8.0 0.00 0.00 0.00 71 1013.9
20260905114515 71 184 9.0 9.0 0.00 0.00 0.00 71 1013.9
20260905114014 71 175 6.0 8.0 0.00 0.00 0.00 71 1013.7
20260905113509 71 181 5.0 8.0 0.00 0.00 0.00 71 1014.0
20260905113005 71 185 6.0 9.0 0.00 0.00 0.00 70 1013.8
20260905112500 71 201 6.0 9.0 0.00 0.00 0.00 70 1013.7
20260905111955 71 199 8.0 9.0 0.00 0.00 0.00 69 1013.7
20260905111449 71 202 7.0 12.0 0.00 0.00 0.00 69 1014.0
20260905110943 71 194 6.0 7.0 0.00 0.00 0.00 69 1013.7
20260905110443 71 187 6.0 8.0 0.00 0.00 0.00 68 1013.9
20260905105937 71 177 5.0 6.0 0.00 0.00 0.00 68 1013.8
20260905105432 71 180 3.0 4.0 0.00 0.00 0.00 68 1014.0
20260905104931 71 164 4.0 4.0 0.00 0.00 0.00 67 1013.7
20260905104427 71 164 7.0 7.0 0.00 0.00 0.00 67 1013.9
20260905103921 72 170 6.0 10.0 0.00 0.00 0.00 66 1014.1
20260905103412 72 167 8.0 9.0 0.00 0.00 0.00 66 1013.7
20260905102908 72 163 9.0 10.0 0.00 0.00 0.00 65 1013.9
20260905102404 72 151 8.0 9.0 0.00 0.00 0.00 65 1013.7
20260905101904 73 154 10.0 10.0 0.00 0.00 0.00 64 1013.6
20260905101402 73 162 9.0 10.0 0.00 0.00 0.00 64 1013.7
20260905100857 73 156 8.0 9.0 0.00 0.00 0.00 63 1014.0
20260905100353 73 180 8.0 11.0 0.00 0.00 0.00 63 1013.8
20260905095852 74 180 7.0 9.0 0.00 0.00 0.00 63 1013.7
20260905095347 74 196 6.0 9.0 0.00 0.00 0.00 62 1013.9
20260905094841 74 190 5.0 11.0 0.00 0.00 0.00 62 1013.8
20260905094337 74 180 7.0 10.0 0.00 0.00 0.00 61 1013.7
20260905093836 74 191 7.0 11.0 0.00 0.00 0.00 61 1014.0
20260905093332 74 184 7.0 11.0 0.00 0.00 0.00 61 1013.6
20260905092827 74 187 7.0 11.0 0.00 0.00 0.00 61 1013.8
20260905092327 74 194 5.0 9.0 0.00 0.00 0.00 60 1013.7
20260905091822 74 203 7.0 8.0 0.00 0.00 0.00 60 1013.7
20260905091322 74 199 5.0 9.0 0.00 0.00 0.00 60 1013.8
20260905090820 74 192 5.0 8.0 0.00 0.00 0.00 60 1013.9
20260905090317 75 183 6.0 9.0 0.00 0.00 0.00 60 1014.1
20260905085810 75 184 5.0 8.0 0.00 0.00 0.00 60 1013.9
20260905085310 75 184 8.0 8.0 0.00 0.00 0.00 59 1013.8
20260905084806 75 182 4.0 8.0 0.00 0.00 0.00 59 1013.7
20260905084306 75 162 7.0 9.0 0.00 0.00 0.00 59 1014.0
20260905083801 75 194 6.0 12.0 0.00 0.00 0.00 58 1014.1
20260905083256 75 172 11.0 11.0 0.00 0.00 0.00 58 1013.8
20260905082751 75 174 8.0 11.0 0.00 0.00 0.00 58 1013.8
20260905082248 75 180 6.0 9.0 0.00 0.00 0.00 58 1014.1
20260905081747 75 194 7.0 9.0 0.00 0.00 0.00 58 1013.8
20260905081243 76 197 7.0 9.0 0.00 0.00 0.00 57 1013.7
20260905080737 76 191 8.0 10.0 0.00 0.00 0.00 57 1013.8
20260905080237 76 171 7.0 9.0 0.00 0.00 0.00 57 1013.8
20260905075736 76 180 8.0 11.0 0.00 0.00 0.00 56 1013.8
20260905075235 77 185 8.0 10.0 0.00 0.00 0.00 56 1013.4
20260905074734 77 174 11.0 13.0 0.00 0.00 0.00 56 1013.7
20260905074230 77 177 11.0 12.0 0.00 0.00 0.00 56 1014.0
20260905073725 77 183 10.0 14.0 0.00 0.00 0.00 55 1013.9
20260905073221 77 174 11.0 13.0 0.00 0.00 0.00 55 1014.0
20260905072720 78 178 11.0 16.0 0.00 0.00 0.00 54 1013.8
20260905072216 78 175 13.0 18.0 0.00 0.00 0.00 54 1014.0
20260905071712 78 173 12.0 16.0 0.00 0.00 0.00 54 1014.0
20260905071208 78 163 10.0 14.0 0.00 0.00 0.00 53 1014.1
20260905070703 78 176 13.0 17.0 0.00 0.00 0.00 53 1014.0
20260905070158 78 177 11.0 15.0 0.00 0.00 0.00 53 1014.0
20260905065657 78 171 9.0 15.0 0.00 0.00 0.00 52 1014.1
20260905065151 78 174 9.0 15.0 0.00 0.00 0.00 51 1014.0
20260905064647 79 189 9.0 17.0 0.00 0.00 0.00 51 1014.0
20260905064143 78 184 11.0 16.0 0.00 0.00 0.00 51 1014.3
20260905063641 78 193 9.0 18.0 0.00 0.00 0.00 50 1014.3
20260905063138 79 200 17.0 18.0 0.00 0.00 0.00 49 1014.2
20260905062633 79 195 16.0 17.0 0.00 0.00 0.00 48 1014.1
20260905062132 80 179 11.0 16.0 0.00 0.00 0.00 46 1014.0
20260905061627 80 157 10.0 14.0 0.00 0.00 0.00 46 1014.0
20260905061126 80 168 9.0 12.0 0.00 0.00 0.00 46 1014.0
20260905060622 80 161 7.0 9.0 0.00 0.00 0.00 46 1013.9
20260905060119 80 172 8.0 11.0 0.00 0.00 0.00 46 1013.6
20260905055616 80 144 7.0 9.0 0.00 0.00 0.00 46 1013.8
20260905055112 80 163 9.0 13.0 0.00 0.00 0.00 46 1013.7
20260905054608 80 132 8.0 11.0 0.00 0.00 0.00 47 1013.4
20260905054103 79 86 3.0 4.0 0.00 0.00 0.00 48 1013.8
20260905053603 79 79 3.0 4.0 0.00 0.00 0.00 49 1013.7
20260905053058 79 93 2.0 3.0 0.00 0.00 0.00 48 1013.7
20260905052557 79 76 3.0 4.0 0.00 0.00 0.00 48 1013.7
20260905052052 79 104 7.0 8.0 0.00 0.00 0.00 48 1013.7
20260905051548 79 81 5.0 9.0 0.00 0.00 0.00 48 1013.8
20260905051044 79 92 5.0 8.0 0.00 0.00 0.00 47 1014.0
20260905050540 79 54 5.0 7.0 0.00 0.00 0.00 48 1013.9
20260905050037 79 112 11.0 17.0 0.00 0.00 0.00 48 1013.9
20260905045531 79 335 2.0 5.0 0.00 0.00 0.00 49 1013.2
20260905045027 79 318 5.0 6.0 0.00 0.00 0.00 49 1013.4
20260905044526 79 329 7.0 9.0 0.00 0.00 0.00 48 1013.7
20260905044021 79 332 7.0 8.0 0.00 0.00 0.00 48 1013.6
20260905043520 79 315 8.0 8.0 0.00 0.00 0.00 48 1013.4
20260905043016 79 336 5.0 9.0 0.00 0.00 0.00 49 1013.6
20260905042514 79 332 6.0 11.0 0.00 0.00 0.00 48 1013.4
20260905042010 79 341 7.0 9.0 0.00 0.00 0.00 49 1013.6
20260905041505 79 326 9.0 10.0 0.00 0.00 0.00 48 1013.6
20260905041001 79 355 5.0 11.0 0.00 0.00 0.00 49 1013.4
20260905040500 79 330 8.0 11.0 0.00 0.00 0.00 49 1013.6
20260905035959 79 331 8.0 10.0 0.00 0.00 0.00 49 1013.4
20260905035454 79 324 7.0 9.0 0.00 0.00 0.00 48 1013.3
20260905034952 80 320 6.0 8.0 0.00 0.00 0.00 48 1013.3
20260905034447 80 332 5.0 7.0 0.00 0.00 0.00 48 1013.4
20260905033946 80 331 7.0 9.0 0.00 0.00 0.00 48 1013.4
20260905033445 80 317 6.0 9.0 0.00 0.00 0.00 48 1013.2
20260905032940 80 318 6.0 9.0 0.00 0.00 0.00 48 1013.3
20260905032436 80 305 7.0 9.0 0.00 0.00 0.00 47 1013.3
20260905031930 80 295 7.0 7.0 0.00 0.00 0.00 47 1013.6
20260905031426 80 320 7.0 8.0 0.00 0.00 0.00 47 1013.3
20260905030921 80 305 7.0 9.0 0.00 0.00 0.00 46 1013.2
20260905030417 81 319 6.0 9.0 0.00 0.00 0.00 46 1013.3
20260905025915 81 312 7.0 9.0 0.00 0.00 0.00 46 1013.3
20260905025411 81 311 7.0 13.0 0.00 0.00 0.00 46 1013.0
20260905024908 81 304 10.0 11.0 0.00 0.00 0.00 46 1013.2
20260905024402 82 318 9.0 13.0 0.00 0.00 0.00 45 1013.1
20260905023858 82 314 8.0 14.0 0.00 0.00 0.00 45 1013.0
20260905023353 83 298 8.0 14.0 0.00 0.00 0.00 43 1012.8
20260905022852 83 288 7.0 13.0 0.00 0.00 0.00 43 1012.8
20260905022347 84 290 9.0 15.0 0.00 0.00 0.00 42 1012.8
20260905021842 84 285 13.0 13.0 0.00 0.00 0.00 40 1012.8
20260905021337 85 277 9.0 12.0 0.00 0.00 0.00 36 1012.9
20260905020832 85 259 8.0 11.0 0.00 0.00 0.00 35 1012.5
20260905020326 86 240 9.0 10.0 0.00 0.00 0.00 32 1012.5
20260905015826 86 240 6.0 6.0 0.00 0.00 0.00 32 1012.4
20260905015320 86 226 3.0 4.0 0.00 0.00 0.00 32 1012.4
20260905014819 87 225 2.0 3.0 0.00 0.00 0.00 32 1012.2
20260905014315 86 167 2.0 2.0 0.00 0.00 0.00 32 1012.6
20260905013810 85 202 0.0 0.0 0.00 0.00 0.00 33 1012.3
20260905013306 86 202 0.0 0.0 0.00 0.00 0.00 32 1012.3
20260905012801 86 122 0.0 2.0 0.00 0.00 0.00 31 1012.3
20260905012256 87 254 3.0 4.0 0.00 0.00 0.00 31 1012.2
20260905011753 88 284 1.0 2.0 0.00 0.00 0.00 29 1012.3
20260905011249 88 239 2.0 4.0 0.00 0.00 0.00 29 1012.4
20260905010743 88 218 4.0 7.0 0.00 0.00 0.00 30 1012.3
20260905010239 89 138 4.0 6.0 0.00 0.00 0.00 30 1012.2
20260905005736 89 136 4.0 5.0 0.00 0.00 0.00 30 1012.3
20260905005231 90 146 5.0 6.0 0.00 0.00 0.00 30 1012.0
20260905004730 90 133 7.0 8.0 0.00 0.00 0.00 29 1012.1
20260905004226 90 146 7.0 12.0 0.00 0.00 0.00 29 1012.2
20260905003725 90 144 4.0 9.0 0.00 0.00 0.00 30 1011.8
20260905003221 90 156 5.0 7.0 0.00 0.00 0.00 30 1012.0
20260905002717 90 144 7.0 9.0 0.00 0.00 0.00 30 1012.0
20260905002217 91 139 9.0 11.0 0.00 0.00 0.00 30 1011.7
20260905001712 91 145 9.0 13.0 0.00 0.00 0.00 30 1011.7
20260905001211 91 157 7.0 9.0 0.00 0.00 0.00 29 1011.6
20260905000706 91 157 6.0 10.0 0.00 0.00 0.00 28 1011.7
20260905000204 92 175 9.0 11.0 0.00 0.00 0.00 28 1011.8
20260904235702 92 191 10.0 11.0 0.00 0.00 0.00 28 1011.5
20260904235157 92 206 10.0 12.0 0.00 0.00 0.00 28 1011.6
20260904234652 92 210 11.0 15.0 0.00 0.00 0.00 28 1011.5
20260904234148 92 195 13.0 19.0 0.00 0.00 0.00 29 1011.7
20260904233643 93 200 12.0 19.0 0.00 0.00 0.00 28 1011.7
20260904233139 93 197 20.0 22.0 0.00 0.00 0.00 28 1011.4
20260904232635 92 202 19.0 21.0 0.00 0.00 0.00 29 1011.4
20260904232131 92 206 20.0 22.0 0.00 0.00 0.00 28 1011.4
20260904231626 93 190 17.0 19.0 0.00 0.00 0.00 27 1011.4
20260904231121 93 187 11.0 20.0 0.00 0.00 0.00 27 1011.5
20260904230621 93 171 13.0 15.0 0.00 0.00 0.00 26 1011.5
20260904230116 93 189 9.0 12.0 0.00 0.00 0.00 26 1011.2
20260904225613 94 217 7.0 9.0 0.00 0.00 0.00 26 1011.3
20260904225108 94 186 5.0 11.0 0.00 0.00 0.00 26 1011.4
20260904224603 94 247 4.0 9.0 0.00 0.00 0.00 26 1011.2
20260904224058 94 228 9.0 11.0 0.00 0.00 0.00 26 1011.1
20260904223557 94 185 6.0 11.0 0.00 0.00 0.00 26 1011.2
20260904223053 94 180 9.0 15.0 0.00 0.00 0.00 26 1011.4
20260904222549 93 180 7.0 10.0 0.00 0.00 0.00 26 1011.2
20260904222044 94 194 7.0 11.0 0.00 0.00 0.00 26 1011.5
20260904221538 94 201 6.0 10.0 0.00 0.00 0.00 26 1011.3
20260904221033 94 190 12.0 13.0 0.00 0.00 0.00 26 1011.4
20260904220533 94 201 13.0 14.0 0.00 0.00 0.00 26 1011.2
20260904220029 93 195 6.0 12.0 0.00 0.00 0.00 26 1011.2
20260904215528 94 230 7.0 10.0 0.00 0.00 0.00 26 1011.3
20260904215024 93 205 12.0 18.0 0.00 0.00 0.00 27 1011.5
20260904214520 93 203 9.0 16.0 0.00 0.00 0.00 27 1011.5
20260904214015 93 211 14.0 15.0 0.00 0.00 0.00 27 1011.3
20260904213513 94 203 19.0 20.0 0.00 0.00 0.00 27 1011.2
20260904213010 94 206 16.0 22.0 0.00 0.00 0.00 27 1011.7
20260904212509 96 168 13.0 19.0 0.00 0.00 0.00 26 1011.5